EW4496 Weather Reports


time (UTC)temp
F
wind
direction
speed
knots
gust
knots
rain 1hr
in
rain 24hr
in
rain mn
in
humidity
%
barometer
mb
20260901133100 57 229 3.5 8.7 0.00 0.00 0.00 82 1013.2
20260901131602 57 230 0.9 5.2 0.00 0.00 0.00 81 1013.1
20260901130005 58 193 2.6 7.0 0.00 0.00 0.00 81 1013.0
20260901124510 58 229 1.7 6.1 0.00 0.00 0.00 80 1012.8
20260901123005 58 222 3.5 8.7 0.00 0.00 0.00 81 1012.8
20260901121506 57 179 1.7 5.2 0.00 0.00 0.00 81 1012.9
20260901120020 57 221 0.9 4.3 0.00 0.00 0.00 80 1012.9
20260901114519 58 236 1.7 5.2 0.00 0.00 0.00 80 1012.6
20260901113020 58 241 2.6 7.0 0.00 0.00 0.00 79 1012.5
20260901111519 59 240 1.7 7.0 0.00 0.00 0.00 78 1012.4
20260901110043 59 218 2.6 7.0 0.00 0.00 0.00 78 1012.5
20260901104534 58 211 2.6 6.1 0.00 0.00 0.00 79 1012.5
20260901103038 58 238 1.7 7.0 0.00 0.00 0.00 80 1012.3
20260901101535 58 211 3.5 7.0 0.00 0.00 0.00 80 1012.3
20260901100033 57 233 1.7 5.2 0.00 0.00 0.00 82 1012.5
20260901094533 57 238 1.7 7.0 0.00 0.00 0.00 82 1012.5
20260901093036 57 219 1.7 5.2 0.00 0.00 0.00 83 1012.4
20260901091534 57 204 2.6 7.8 0.00 0.00 0.00 82 1012.4
20260901090033 57 229 1.7 5.2 0.00 0.00 0.00 82 1012.6
20260901084533 57 203 2.6 7.0 0.00 0.00 0.00 82 1012.7
20260901083033 58 177 2.6 7.0 0.00 0.00 0.00 82 1012.6
20260901081533 58 229 3.5 7.8 0.00 0.00 0.00 82 1012.5
20260901080038 58 212 2.6 7.8 0.00 0.00 0.00 82 1012.6
20260901074532 58 196 4.3 7.0 0.00 0.00 0.00 82 1012.5
20260901073003 58 194 2.6 8.7 0.00 0.00 0.00 82 1012.4
20260901071502 58 181 2.6 7.8 0.00 0.00 0.00 82 1012.3
20260901070002 58 232 2.6 6.1 0.00 0.00 0.00 81 1012.3
20260901064522 58 228 1.7 6.1 0.00 0.00 0.00 82 1012.3
20260901063040 58 239 0.9 4.3 0.00 0.00 0.00 81 1012.3
20260901061517 58 255 1.7 4.3 0.00 0.00 0.00 82 1012.4
20260901060017 58 223 0.9 4.3 0.00 0.00 0.00 81 1012.3
20260901054517 59 261 0.0 5.2 0.00 0.00 0.00 80 1012.2
20260901053017 59 263 0.9 5.2 0.00 0.00 0.00 79 1012.2
20260901051517 60 233 0.0 7.0 0.00 0.00 0.00 78 1012.2
20260901050051 60 262 0.9 7.0 0.00 0.00 0.00 78 1012.2
20260901044533 61 262 0.0 4.3 0.00 0.00 0.00 76 1012.2
20260901043042 61 293 0.9 5.2 0.00 0.00 0.00 76 1012.0
20260901041543 62 304 0.0 5.2 0.00 0.00 0.00 76 1011.9
20260901040042 62 260 0.0 4.3 0.00 0.00 0.00 76 1011.6
20260901034546 62 266 0.0 4.3 0.00 0.00 0.00 75 1011.5
20260901033044 63 283 0.9 4.3 0.00 0.00 0.00 74 1011.1
20260901031542 63 245 0.0 5.2 0.00 0.00 0.00 72 1010.9
20260901030057 64 359 0.9 6.1 0.00 0.00 0.00 71 1010.7
20260901024556 65 328 1.7 7.8 0.00 0.00 0.00 69 1010.5
20260901023056 66 354 1.7 10.4 0.00 0.00 0.00 66 1010.5
20260901021602 67 5 2.6 11.3 0.00 0.00 0.00 64 1010.4
20260901020111 69 1 3.5 13.0 0.00 0.00 0.00 60 1010.2
20260901014611 71 344 3.5 10.4 0.00 0.00 0.00 57 1010.0
20260901013127 73 347 3.5 8.7 0.00 0.00 0.00 53 1009.9
20260901011515 74 1 1.7 10.4 0.00 0.00 0.00 52 1009.9
20260901010021 75 319 2.6 7.8 0.00 0.00 0.00 49 1009.9
20260901004517 76 334 2.6 8.7 0.00 0.00 0.00 48 1010.0
20260901003011 76 307 2.6 9.6 0.00 0.00 0.00 47 1010.2
20260901001514 77 261 1.7 8.7 0.00 0.00 0.00 47 1010.1
20260901000010 77 15 2.6 10.4 0.00 0.00 0.00 48 1010.1
20260831234510 77 205 3.5 7.8 0.00 0.00 0.00 48 1010.1
20260831233011 78 340 2.6 8.7 0.00 0.00 0.00 47 1010.3
20260831231511 78 340 1.7 9.6 0.00 0.00 0.00 47 1010.3
20260831230009 78 18 0.9 8.7 0.00 0.00 0.00 46 1010.5
20260831224510 78 356 0.0 8.7 0.00 0.00 0.00 47 1010.6
20260831223027 79 29 0.9 8.7 0.00 0.00 0.00 45 1010.6
20260831221611 79 334 0.0 11.3 0.00 0.00 0.00 45 1010.7
20260831220010 79 347 0.9 8.7 0.00 0.00 0.00 45 1010.8
20260831214510 79 279 1.7 9.6 0.00 0.00 0.00 44 1011.0
20260831213010 78 274 1.7 7.0 0.00 0.00 0.00 43 1011.1
20260831211532 78 330 0.9 7.8 0.00 0.00 0.00 44 1011.2
20260831210034 77 26 2.6 9.6 0.00 0.00 0.00 45 1011.3
20260831204526 77 321 0.9 7.8 0.00 0.00 0.00 45 1011.3
20260831203030 76 314 1.7 7.0 0.00 0.00 0.00 47 1011.4
20260831201529 75 302 3.5 7.8 0.00 0.00 0.00 49 1011.7
20260831200030 74 312 1.7 7.8 0.00 0.00 0.00 50 1011.8
20260831194614 74 273 0.9 7.8 0.00 0.00 0.00 51 1011.9
20260831193101 73 3 2.6 8.7 0.00 0.00 0.00 52 1012.1
20260831191559 72 266 2.6 10.4 0.00 0.00 0.00 53 1012.1
20260831190100 72 330 2.6 8.7 0.00 0.00 0.00 53 1012.1
20260831184602 72 222 1.7 8.7 0.00 0.00 0.00 55 1012.2
20260831183104 71 300 1.7 9.6 0.00 0.00 0.00 54 1012.1
20260831181614 71 347 1.7 7.0 0.00 0.00 0.00 56 1012.1
20260831180113 70 6 1.7 7.0 0.00 0.00 0.00 57 1012.1
20260831174614 71 355 0.9 5.2 0.00 0.00 0.00 56 1012.1
20260831173114 70 315 0.0 5.2 0.00 0.00 0.00 59 1012.0
20260831171517 69 278 0.9 6.1 0.00 0.00 0.00 60 1012.0
20260831170015 68 228 0.0 3.5 0.00 0.00 0.00 61 1011.9
20260831164513 67 307 0.9 6.1 0.00 0.00 0.00 64 1011.9
20260831163100 67 316 0.0 4.3 0.00 0.00 0.00 65 1011.9
20260831161604 66 271 0.0 4.3 0.00 0.00 0.00 67 1011.9
20260831160018 65 259 0.0 5.2 0.00 0.00 0.00 70 1011.9
20260831154513 64 328 0.9 4.3 0.00 0.00 0.00 71 1011.9
20260831153013 63 282 0.0 4.3 0.00 0.00 0.00 74 1011.8
20260831151529 62 332 0.0 5.2 0.00 0.00 0.00 77 1011.8
20260831150028 61 338 0.0 3.5 0.00 0.00 0.00 79 1011.7
20260831144528 59 329 0.0 0.0 0.00 0.00 0.00 83 1011.5
20260831143027 58 333 0.0 0.9 0.00 0.00 0.00 85 1011.2
20260831141531 57 342 0.0 0.0 0.00 0.00 0.00 87 1011.2
20260831140027 56 342 0.0 0.0 0.00 0.00 0.00 88 1010.9
20260831134515 56 330 0.0 0.0 0.00 0.00 0.00 88 1010.7